User: anonymous   Login
Location: Canazei
(46.4667°N, 11.7667°E)
Time: 04:17:26
(UTC+00:00)
Language:

USA 307 - Orbit

View from above orbital plane
View from above orbital plane
View from above satellite
View from above satellite

Ground track
Ground track

The orbit data is extracted from the following two-line orbital elements,

1 45875U 20046C   21198.89435314 0.00002000  00000-0  16437-3 0    08
2 45875  53.9842 133.5277 0007587 191.2148 168.7851 14.98692244    08
Epoch (UTC): 17 July 2021 21:27:52
Eccentricity: 0.0007587
inclination: 53.9842°
perigee height: 565 km
apogee height: 576 km
right ascension of ascending node: 133.5277°
argument of perigee: 191.2148°
revolutions per day: 14.98692244
mean anomaly at epoch: 168.7851°
orbit number at epoch: 0

The dashed part of the orbit path shows where the satellite is in the earth's shadow,  

DLR